Hourly Weather Rulevschina

Today, 22 April, Thursday

Time Temperature Precipitation Wind Pressure Humidity
00:00 +4°C° 0 mm 3 mps 736 mmHg 89%
01:00 +4°C° 0 mm 3 mps 736 mmHg 88%
02:00 +4°C° 0 mm 3 mps 737 mmHg 86%
03:00 +4°C° 0 mm 3 mps 737 mmHg 87%
04:00 +3°C° 0 mm 3 mps 737 mmHg 87%
05:00 +3°C° 0 mm 3 mps 737 mmHg 87%
06:00 +5°C° 0 mm 3 mps 737 mmHg 80%
07:00 +8°C° 0 mm 3 mps 737 mmHg 74%
08:00 +9°C° 0 mm 3 mps 738 mmHg 67%
09:00 +11°C° 0.1 mm 3 mps 738 mmHg 62%
10:00 +12°C° 0.1 mm 4 mps 738 mmHg 57%
11:00 +13°C° 0.1 mm 5 mps 738 mmHg 52%
12:00 +14°C° 0.3 mm 5 mps 737 mmHg 51%
13:00 +14°C° 0.3 mm 6 mps 737 mmHg 50%
14:00 +14°C° 0.3 mm 6 mps 737 mmHg 49%
15:00 +14°C° 0.3 mm 6 mps 737 mmHg 54%
16:00 +13°C° 0.3 mm 5 mps 737 mmHg 60%
17:00 +12°C° 0.3 mm 5 mps 737 mmHg 65%
18:00 +10°C° 0.2 mm 4 mps 737 mmHg 72%
19:00 +9°C° 0.2 mm 3 mps 738 mmHg 79%
20:00 +7°C° 0.2 mm 3 mps 738 mmHg 87%
21:00 +7°C° 0 mm 3 mps 738 mmHg 85%
22:00 +7°C° 0 mm 3 mps 738 mmHg 83%
23:00 +5°C° 0 mm 3 mps 737 mmHg 81%

Tomorrow, 23 April, Friday

Time Temperature Precipitation Wind Pressure Humidity
00:00 +5°C° 0 mm 3 mps 738 mmHg 80%
01:00 +4°C° 0 mm 3 mps 738 mmHg 80%
02:00 +4°C° 0 mm 3 mps 738 mmHg 80%
03:00 +3°C° 0 mm 4 mps 738 mmHg 81%
04:00 +1°C° 0 mm 4 mps 738 mmHg 83%
05:00 0°C° 0 mm 4 mps 738 mmHg 85%
06:00 +1°C° 0 mm 5 mps 738 mmHg 79%
07:00 +2°C° 0 mm 5 mps 738 mmHg 74%
08:00 +2°C° 0 mm 6 mps 739 mmHg 68%
09:00 +3°C° 0.1 mm 6 mps 739 mmHg 65%
10:00 +3°C° 0.1 mm 7 mps 739 mmHg 63%
11:00 +3°C° 0.1 mm 7 mps 739 mmHg 60%
12:00 +3°C° 0 mm 7 mps 739 mmHg 61%
13:00 +3°C° 0 mm 6 mps 739 mmHg 61%
14:00 +4°C° 0 mm 6 mps 740 mmHg 61%
15:00 +4°C° 0.1 mm 6 mps 740 mmHg 63%
16:00 +5°C° 0.1 mm 5 mps 739 mmHg 64%
17:00 +5°C° 0.1 mm 5 mps 739 mmHg 66%
18:00 +3°C° 0.1 mm 4 mps 739 mmHg 72%
19:00 +2°C° 0.1 mm 3 mps 740 mmHg 78%
20:00 +2°C° 0.1 mm 2 mps 740 mmHg 83%
21:00 +2°C° 0 mm 2 mps 739 mmHg 85%
22:00 +1°C° 0 mm 2 mps 739 mmHg 87%
23:00 +1°C° 0 mm 2 mps 739 mmHg 89%

Day after tomorrow, 24 April, Saturday

Time Temperature Precipitation Wind Pressure Humidity
00:00 +1°C° 0 mm 2 mps 739 mmHg 91%
01:00 +1°C° 0 mm 2 mps 739 mmHg 94%
02:00 +1°C° 0 mm 2 mps 739 mmHg 96%
03:00 -1°C° 0.3 mm 3 mps 739 mmHg 94%
04:00 -2°C° 0.3 mm 4 mps 739 mmHg 92%
05:00 -2°C° 0.3 mm 4 mps 739 mmHg 90%
06:00 -2°C° 0 mm 5 mps 739 mmHg 86%
07:00 -1°C° 0 mm 5 mps 739 mmHg 82%
08:00 -2°C° 0 mm 6 mps 739 mmHg 77%
09:00 -1°C° 0.1 mm 6 mps 740 mmHg 73%
10:00 0°C° 0.1 mm 5 mps 740 mmHg 68%
11:00 +1°C° 0.1 mm 5 mps 740 mmHg 64%
12:00 +2°C° 0.3 mm 6 mps 740 mmHg 60%
13:00 +3°C° 0.3 mm 6 mps 739 mmHg 57%
14:00 +4°C° 0.3 mm 7 mps 739 mmHg 53%
15:00 +4°C° 0.2 mm 6 mps 739 mmHg 55%
16:00 +3°C° 0.2 mm 6 mps 739 mmHg 56%
17:00 +3°C° 0.2 mm 6 mps 739 mmHg 57%
18:00 +2°C° 0.1 mm 5 mps 739 mmHg 64%
19:00 +1°C° 0.1 mm 4 mps 739 mmHg 71%
20:00 +1°C° 0.1 mm 3 mps 739 mmHg 78%
21:00 0°C° 0 mm 3 mps 739 mmHg 80%
22:00 -1°C° 0 mm 4 mps 739 mmHg 82%
23:00 -1°C° 0 mm 4 mps 739 mmHg 84%

25 April, Sunday

Time Temperature Precipitation Wind Pressure Humidity
00:00 -2°C° 0 mm 4 mps 739 mmHg 85%
01:00 -2°C° 0 mm 5 mps 739 mmHg 85%
02:00 -4°C° 0 mm 5 mps 739 mmHg 86%
03:00 -4°C° 0 mm 5 mps 739 mmHg 87%
04:00 -4°C° 0 mm 6 mps 739 mmHg 88%
05:00 -4°C° 0 mm 6 mps 739 mmHg 89%
06:00 -4°C° 0 mm 6 mps 739 mmHg 84%
07:00 -3°C° 0 mm 6 mps 739 mmHg 78%
08:00 -3°C° 0 mm 6 mps 739 mmHg 73%
09:00 -2°C° 0 mm 6 mps 739 mmHg 69%
10:00 -1°C° 0 mm 6 mps 739 mmHg 66%
11:00 +1°C° 0 mm 6 mps 739 mmHg 62%
12:00 +2°C° 0.2 mm 6 mps 739 mmHg 59%
13:00 +2°C° 0.2 mm 7 mps 739 mmHg 55%
14:00 +3°C° 0.2 mm 7 mps 739 mmHg 52%
15:00 +3°C° 0.2 mm 6 mps 739 mmHg 55%
16:00 +3°C° 0.2 mm 6 mps 739 mmHg 57%
17:00 +3°C° 0.2 mm 6 mps 739 mmHg 60%
18:00 +2°C° 0 mm 5 mps 739 mmHg 66%
19:00 0°C° 0 mm 4 mps 739 mmHg 71%
20:00 0°C° 0 mm 3 mps 739 mmHg 77%
21:00 0°C° 0 mm 3 mps 739 mmHg 79%
22:00 -1°C° 0 mm 3 mps 739 mmHg 81%
23:00 -1°C° 0 mm 3 mps 739 mmHg 83%

26 April, Monday

Time Temperature Precipitation Wind Pressure Humidity
00:00 -1°C° 0 mm 3 mps 739 mmHg 85%
01:00 -1°C° 0 mm 3 mps 739 mmHg 87%
02:00 -1°C° 0 mm 3 mps 739 mmHg 89%
03:00 -2°C° 0 mm 3 mps 739 mmHg 91%
04:00 -2°C° 0 mm 3 mps 739 mmHg 93%
05:00 -2°C° 0 mm 3 mps 739 mmHg 95%
06:00 -1°C° 0 mm 3 mps 739 mmHg 89%
07:00 -1°C° 0 mm 4 mps 739 mmHg 83%
08:00 0°C° 0 mm 4 mps 739 mmHg 77%
09:00 0°C° 0 mm 4 mps 739 mmHg 73%
10:00 +1°C° 0 mm 4 mps 739 mmHg 68%
11:00 +1°C° 0 mm 5 mps 739 mmHg 64%
12:00 +2°C° 0.1 mm 5 mps 739 mmHg 63%
13:00 +2°C° 0.1 mm 5 mps 739 mmHg 63%
14:00 +3°C° 0.1 mm 5 mps 739 mmHg 62%
15:00 +3°C° 0.2 mm 5 mps 738 mmHg 62%
16:00 +4°C° 0.2 mm 4 mps 738 mmHg 61%
17:00 +4°C° 0.2 mm 4 mps 738 mmHg 61%
18:00 +3°C° 0.1 mm 4 mps 738 mmHg 68%
19:00 +2°C° 0.1 mm 3 mps 737 mmHg 74%
20:00 +1°C° 0.1 mm 3 mps 737 mmHg 81%
21:00 0°C° 0 mm 3 mps 737 mmHg 84%
22:00 0°C° 0 mm 3 mps 737 mmHg 87%
23:00 0°C° 0 mm 3 mps 737 mmHg 90%

27 April, Tuesday

Time Temperature Precipitation Wind Pressure Humidity
00:00 0°C° 0.1 mm 3 mps 737 mmHg 91%
01:00 0°C° 0.1 mm 3 mps 737 mmHg 91%
02:00 0°C° 0.1 mm 3 mps 737 mmHg 91%
03:00 -1°C° 0 mm 2 mps 737 mmHg 92%
04:00 -1°C° 0 mm 2 mps 737 mmHg 93%
05:00 -1°C° 0 mm 2 mps 737 mmHg 94%
06:00 0°C° 0 mm 3 mps 737 mmHg 90%
07:00 +1°C° 0 mm 3 mps 738 mmHg 87%
08:00 +1°C° 0 mm 4 mps 738 mmHg 83%
09:00 +1°C° 0 mm 4 mps 738 mmHg 82%
10:00 +3°C° 0 mm 4 mps 738 mmHg 81%
11:00 +2°C° 0 mm 5 mps 738 mmHg 80%
12:00 +2°C° 0.1 mm 5 mps 738 mmHg 82%
13:00 +2°C° 0.1 mm 5 mps 738 mmHg 85%
14:00 +2°C° 0.1 mm 5 mps 738 mmHg 87%
15:00 +4°C° 0.1 mm 4 mps 739 mmHg 86%
16:00 +4°C° 0.1 mm 4 mps 739 mmHg 86%
17:00 +4°C° 0.1 mm 4 mps 739 mmHg 85%
18:00 +3°C° 0 mm 3 mps 739 mmHg 88%
19:00 +2°C° 0 mm 3 mps 739 mmHg 90%
20:00 +2°C° 0 mm 3 mps 739 mmHg 92%
21:00 +1°C° 0 mm 3 mps 739 mmHg 93%
22:00 +2°C° 0 mm 2 mps 739 mmHg 94%
23:00 +1°C° 0 mm 2 mps 739 mmHg 94%
Show more